[[{"header":{"parameterUnit":"m.s-1","parameterCategory":1,"la1":30.2991,"la2":30.254,"lo1":-89.0895,"lo2":-89.0444,"dy":0.0017,"dx":0.0017,"nx":28,"ny":28,"refTime":"2024-08-11T15:00:00:Z","depth":0,"parameterNumber":2,"parameterNumberName":"U-component_of_WINDS"},"data":[0,0,0,0,0,0,0,0,0,0,0,0,0,0,0,0,0,0,0,0,0,0,0,0,0,0,0,0,0,0,0,0,0,0,0,0,0,0,0,0,0,0,0,0,0,0,0,0,0,0,0,0,0,0,0,0,0,0,0.6198,0.62,0,0.6323,0.6324,0.6326,0.6394,0.6394,0.6394,0.6394,0.6524,0.6527,0.653,0,0,0,0,0,0,0,0,0,0,0,0,0,0.6021,0.6024,0.6198,0.62,0.6201,0.6323,0.6324,0.6326,0.6394,0.6394,0.6394,0.6394,0.6523,0.6526,0.653,0,0,0,0,0,0,0,0,0,0,0,0,0,0.6117,0.6025,0.6198,0.625,0.6256,0.6322,0.6324,0.6326,0.6393,0.6394,0.6394,0.6394,0.6521,0.6526,0.6531,0.6556,0,0,0.6546,0.6548,0,0,0,0,0,0,0,0,0.6112,0.6123,0.6241,0.6246,0.6253,0.6343,0.6309,0.6404,0.6393,0.6341,0.6394,0.6394,0.6463,0.6473,0.6496,0.6562,0.6568,0.6546,0.6549,0.6552,0.6553,0,0,0,0,0,0,0,0.6105,0.6119,0.6248,0.6242,0.625,0.6267,0.6281,0.6328,0.6399,0.6346,0.6351,0.6365,0.6467,0.6491,0.65,0.657,0.6546,0.6551,0.6554,0.6556,0.6663,0.6663,0,0,0,0,0,0,0.609,0.6113,0.6244,0.6251,0.6181,0.627,0.6286,0.6314,0.6399,0.6412,0.6364,0.6367,0.6482,0.6494,0.6504,0.6539,0.6552,0.6556,0.6559,0.6664,0.6663,0.6663,0,0,0,0,0,0,0.6086,0.6101,0.6239,0.6183,0.6202,0.6273,0.6304,0.6316,0.634,0.6413,0.6426,0.6376,0.6483,0.6497,0.6543,0.6545,0.6558,0.6563,0.6664,0.6664,0.6663,0.661,0,0,0,0,0,0,0.608,0.6099,0.6109,0.6183,0.6205,0.6274,0.6304,0.6318,0.6348,0.6354,0.6427,0.644,0.6484,0.6535,0.6548,0.6552,0.6567,0.6664,0.6664,0.6663,0.6611,0.6608,0.6604,0,0,0,0,0,0.6074,0.6089,0.6109,0.6124,0.6219,0.6274,0.6287,0.6337,0.6348,0.6359,0.6406,0.6437,0.6543,0.6539,0.6554,0.656,0.6664,0.6664,0.6663,0.6613,0.6608,0.6604,0,0,0,0,0,0,0.6014,0.61,0.6123,0.6163,0.621,0.6285,0.6301,0.6331,0.6377,0.638,0.6441,0.6457,0.6497,0.6533,0.6527,0.6589,0.6607,0.6609,0.6563,0.6559,0.6556,0.6546,0.6571,0,0,0,0,0,0.6005,0.6042,0.6116,0.6144,0.6167,0.6229,0.6255,0.629,0.6342,0.6363,0.6413,0.6463,0.6508,0.6536,0.6581,0.6617,0.6634,0.6629,0.6625,0.6622,0.6623,0.6645,0.6643,0.6663,0.6663,0.6663,0,0,0.5988,0.6039,0.6059,0.6133,0.6174,0.6212,0.6246,0.6284,0.6313,0.6369,0.6415,0.6453,0.6513,0.6554,0.6575,0.6586,0.6622,0.6621,0.6618,0.6622,0.6644,0.6642,0.6641,0.6662,0.6662,0.6662,0,0,0.5975,0.6018,0.6046,0.6086,0.6148,0.619,0.6196,0.6267,0.6294,0.6341,0.6384,0.6419,0.6494,0.6535,0.6566,0.6568,0.6599,0.6581,0.6562,0.6583,0.6581,0.658,0.658,0.658,0.6583,0.6583,0.6583,0,0.5946,0.6003,0.6057,0.6092,0.6124,0.6176,0.6205,0.6242,0.6315,0.6335,0.6347,0.6442,0.6486,0.6537,0.6537,0.6561,0.657,0.6573,0.6577,0.6576,0.6576,0.6577,0.6577,0.658,0.658,0.6581,0.6581,0,0.5964,0.6003,0.6019,0.6087,0.6121,0.6153,0.6211,0.6238,0.627,0.631,0.6357,0.6412,0.6469,0.6484,0.6516,0.6539,0.6544,0.6565,0.6584,0.6571,0.6573,0.6574,0.6576,0.6577,0.6578,0.6579,0,0,0.5917,0.6014,0.6019,0.605,0.6122,0.6154,0.6189,0.6243,0.6265,0.6314,0.6345,0.6407,0.6427,0.6462,0.6499,0.6517,0.6515,0.6536,0.6539,0.653,0.6544,0.6526,0.6526,0.6536,0.6536,0.6536,0.6538,0,0.5914,0.5977,0.6026,0.6072,0.6109,0.6159,0.6189,0.6237,0.6275,0.6313,0.6357,0.6399,0.6423,0.6444,0.6464,0.6511,0.6518,0.6511,0.6565,0.6566,0.6547,0.6527,0.6509,0.6508,0.6539,0.654,0.654,0,0.5918,0.5965,0.6013,0.6081,0.6098,0.6124,0.6178,0.6214,0.6269,0.6296,0.6334,0.6372,0.6412,0.6427,0.6482,0.6477,0.6502,0.6528,0.6529,0.6535,0.6551,0.6532,0.6509,0.6508,0.6542,0.6541,0.6541,0,0.5877,0.5952,0.5991,0.6017,0.6097,0.6114,0.6148,0.6204,0.6233,0.6281,0.6301,0.6353,0.6381,0.642,0.6471,0.6478,0.6521,0.6541,0.6544,0.6543,0.655,0.6549,0.653,0.6568,0.6568,0.6568,0.6568,0,0.5868,0.5896,0.5974,0.5997,0.603,0.6086,0.6117,0.6156,0.6205,0.6237,0.6285,0.6314,0.6381,0.6418,0.6459,0.6498,0.6511,0.6534,0.6544,0.6529,0.6526,0.6545,0.6546,0.6568,0.6568,0.6568,0.6568,0,0.5828,0.5881,0.5926,0.5999,0.6018,0.6038,0.61,0.6125,0.6167,0.6207,0.622,0.6285,0.6332,0.6387,0.6453,0.648,0.6515,0.6531,0.6496,0.6502,0.6501,0.65,0.6494,0.6496,0.6532,0.6532,0.6531,0,0.5818,0.584,0.5915,0.594,0.5972,0.6012,0.6042,0.6099,0.6129,0.6193,0.621,0.6261,0.6304,0.6376,0.643,0.648,0.6497,0.6491,0.6505,0.6489,0.6496,0.6493,0.6496,0.6487,0.6486,0.6486,0.6485,0,0.5794,0.582,0.5861,0.5912,0.5947,0.599,0.6035,0.6052,0.6118,0.615,0.6197,0.6231,0.6297,0.6346,0.6403,0.6439,0.6473,0.6481,0.6484,0.6468,0.6447,0.6457,0.6485,0.648,0.6481,0.6481,0.6482,0.6482,0.5769,0.579,0.5846,0.5891,0.5931,0.5972,0.5998,0.6043,0.6084,0.6141,0.6173,0.622,0.6275,0.6355,0.639,0.6428,0.644,0.6445,0.6446,0.6446,0.6441,0.6441,0.6439,0.6439,0.6439,0.6439,0.6439,0,0.5746,0.5785,0.5826,0.5887,0.5922,0.5951,0.6002,0.6029,0.607,0.6118,0.616,0.6215,0.6263,0.632,0.6372,0.6391,0.6408,0.6403,0.6401,0.6409,0.6428,0.6419,0.6388,0.6388,0.6388,0.6388,0.6388,0.6388,0.5739,0.5777,0.5809,0.5868,0.5907,0.5953,0.5979,0.6017,0.6056,0.6115,0.6155,0.6192,0.6244,0.63,0.6345,0.6361,0.6378,0.6367,0.6387,0.6404,0.6408,0.6412,0.6404,0.6371,0.6371,0.6366,0.6366,0.6366]},{"header":{"parameterUnit":"m.s-1","parameterCategory":1,"la1":30.2991,"la2":30.254,"lo1":-89.0895,"lo2":-89.0444,"dy":0.0017,"dx":0.0017,"nx":28,"ny":28,"refTime":"2024-08-11T15:00:00:Z","depth":0,"parameterNumber":3,"parameterNumberName":"V-component_of_WINDS"},"data":[0,0,0,0,0,0,0,0,0,0,0,0,0,0,0,0,0,0,0,0,0,0,0,0,0,0,0,0,0,0,0,0,0,0,0,0,0,0,0,0,0,0,0,0,0,0,0,0,0,0,0,0,0,0,0,0,0,0,2.5669,2.5669,0,2.5654,2.5653,2.5653,2.5607,2.5606,2.5605,2.5604,2.5586,2.5587,2.5587,0,0,0,0,0,0,0,0,0,0,0,0,0,2.5655,2.5656,2.5669,2.5669,2.5669,2.5654,2.5653,2.5653,2.5607,2.5606,2.5605,2.5603,2.5586,2.5586,2.5587,0,0,0,0,0,0,0,0,0,0,0,0,0,2.5653,2.5656,2.5669,2.5644,2.5642,2.5654,2.5653,2.5653,2.5607,2.5606,2.5604,2.5603,2.5586,2.5586,2.5587,2.5622,0,0,2.5589,2.559,0,0,0,0,0,0,0,0,2.5653,2.5653,2.5648,2.5646,2.5643,2.5631,2.5642,2.5643,2.5608,2.562,2.5604,2.5602,2.5602,2.5601,2.5602,2.5621,2.562,2.5589,2.559,2.559,2.559,0,0,0,0,0,0,0,2.5653,2.5654,2.5663,2.5648,2.5645,2.5632,2.563,2.5642,2.562,2.5619,2.5616,2.5615,2.56,2.5601,2.5601,2.562,2.5589,2.559,2.559,2.5591,2.5662,2.5664,0,0,0,0,0,0,2.5657,2.5654,2.5663,2.5662,2.5644,2.5634,2.5631,2.5636,2.562,2.5616,2.5616,2.5612,2.5601,2.56,2.56,2.5636,2.559,2.5591,2.5591,2.5661,2.5663,2.5664,0,0,0,0,0,0,2.5657,2.5659,2.5664,2.5657,2.5657,2.5636,2.5641,2.5637,2.5637,2.5617,2.5613,2.5621,2.5599,2.5599,2.5616,2.5635,2.5591,2.5592,2.5659,2.5662,2.5664,2.571,0,0,0,0,0,0,2.5657,2.5659,2.5673,2.5658,2.5658,2.5681,2.5643,2.5637,2.5639,2.5634,2.5621,2.5617,2.5598,2.5615,2.5617,2.5635,2.5592,2.5657,2.566,2.5663,2.5707,2.5714,2.572,0,0,0,0,0,2.5657,2.5687,2.5674,2.5675,2.5675,2.5683,2.5682,2.5661,2.5641,2.5653,2.564,2.5617,2.5633,2.5617,2.5619,2.5637,2.5656,2.5659,2.5663,2.5704,2.5712,2.572,0,0,0,0,0,0,2.5704,2.5685,2.567,2.5696,2.5691,2.5675,2.569,2.5671,2.5671,2.5667,2.564,2.5637,2.5656,2.5649,2.5632,2.5668,2.5641,2.5644,2.5672,2.568,2.5686,2.5686,2.5593,0,0,0,0,0,2.5718,2.5727,2.5709,2.5734,2.5733,2.5712,2.5715,2.5698,2.5692,2.5689,2.5678,2.5671,2.5674,2.5677,2.568,2.5707,2.5701,2.572,2.5727,2.5732,2.5734,2.5744,2.5752,2.5675,2.5675,2.5675,0,0,2.5746,2.5736,2.5744,2.5743,2.5738,2.5745,2.571,2.5721,2.5726,2.5691,2.5705,2.5696,2.5687,2.5708,2.5717,2.5703,2.5755,2.5736,2.5741,2.574,2.5749,2.5756,2.5762,2.5678,2.5677,2.5677,0,0,2.58,2.5796,2.5814,2.5809,2.58,2.5786,2.5791,2.5777,2.5769,2.5784,2.5756,2.5762,2.5769,2.5762,2.576,2.5811,2.5788,2.5812,2.5845,2.5855,2.5861,2.5866,2.588,2.5886,2.5816,2.5816,2.5816,0,2.5836,2.5847,2.5826,2.5837,2.5836,2.5806,2.5822,2.5819,2.5811,2.5811,2.5795,2.5802,2.5794,2.5811,2.5823,2.5824,2.5826,2.5812,2.5862,2.5867,2.5871,2.5884,2.589,2.5818,2.5818,2.5818,2.5817,0,2.5889,2.5898,2.5914,2.5907,2.5908,2.5923,2.5902,2.5906,2.5889,2.5876,2.5889,2.5879,2.5877,2.5881,2.5865,2.5895,2.5886,2.5867,2.5838,2.5881,2.5893,2.5898,2.5822,2.5821,2.582,2.582,0,0,2.5971,2.5952,2.5957,2.5952,2.5941,2.5946,2.5959,2.5957,2.5959,2.5955,2.5962,2.5969,2.595,2.5947,2.5931,2.5941,2.5976,2.592,2.5919,2.5927,2.6004,2.6016,2.6022,2.5963,2.5964,2.5965,2.6003,0,2.6019,2.6039,2.6019,2.6042,2.6047,2.6018,2.6028,2.6021,2.6009,2.6011,2.5998,2.6001,2.5979,2.5976,2.5985,2.597,2.5991,2.5968,2.5967,2.5967,2.5966,2.6029,2.6042,2.6079,2.6008,2.6009,2.601,0,2.6077,2.6075,2.6098,2.6082,2.6084,2.6094,2.6089,2.6092,2.6083,2.6074,2.607,2.605,2.6059,2.6034,2.6044,2.6029,2.6027,2.602,2.6021,2.6017,2.5988,2.6023,2.6091,2.6095,2.6018,2.6017,2.6016,0,2.6129,2.6133,2.6146,2.6144,2.6127,2.6133,2.6126,2.6116,2.6115,2.6111,2.611,2.6107,2.6105,2.6102,2.6081,2.6066,2.6093,2.6067,2.6083,2.6083,2.6087,2.6086,2.6152,2.6093,2.6092,2.6092,2.6092,0,2.6182,2.6197,2.6169,2.6177,2.6191,2.6168,2.6183,2.6173,2.6164,2.6168,2.6143,2.6147,2.6121,2.6122,2.6106,2.6115,2.6115,2.6106,2.6101,2.6106,2.6107,2.6102,2.6098,2.6094,2.6093,2.6093,2.6093,0,2.6241,2.6224,2.6236,2.6219,2.6215,2.6226,2.621,2.6216,2.6203,2.6208,2.6208,2.6187,2.6187,2.6167,2.6162,2.6151,2.6165,2.6157,2.6168,2.6164,2.618,2.6178,2.6242,2.6248,2.6188,2.6189,2.619,0,2.6274,2.6284,2.6268,2.6269,2.6264,2.6266,2.6265,2.6243,2.6242,2.6232,2.6238,2.6236,2.6232,2.6233,2.6216,2.6212,2.6202,2.6225,2.6201,2.6205,2.6197,2.6196,2.6195,2.6228,2.6229,2.623,2.623,0,2.6333,2.6324,2.6324,2.632,2.6319,2.6315,2.6309,2.6312,2.6287,2.6288,2.6287,2.6284,2.628,2.6276,2.6269,2.6261,2.624,2.6239,2.6241,2.6245,2.6249,2.6244,2.6178,2.6236,2.6236,2.6235,2.6235,2.6235,2.6378,2.6384,2.6373,2.6373,2.6366,2.6361,2.6365,2.6352,2.6351,2.6345,2.6333,2.6333,2.6322,2.631,2.6303,2.6302,2.629,2.6295,2.6296,2.6297,2.6298,2.6253,2.6301,2.6301,2.6301,2.6301,2.6301,0,2.6432,2.6423,2.6424,2.6416,2.6415,2.6398,2.6391,2.6391,2.6392,2.6383,2.638,2.6378,2.6375,2.6358,2.6353,2.6355,2.6346,2.6354,2.6352,2.635,2.6311,2.6307,2.6362,2.6362,2.6362,2.6362,2.6362,2.6362,2.646,2.6469,2.6458,2.6463,2.6454,2.6454,2.6451,2.6445,2.6438,2.6437,2.6434,2.6424,2.6411,2.6404,2.64,2.6395,2.6393,2.6404,2.6395,2.6359,2.6353,2.6347,2.6343,2.6404,2.6404,2.6433,2.6434,2.6434]}]]